sat.trackr.live / text

‹ back to catalog

STARLINK-1764

NORAD 46343 · 2020-062U

PAYLOAD ACTIVE UNKNOWN

§ Identity

Operator
Country
US
Launch date
2020-09-03
Launch site
AFETR
Launch vehicle
Mass (kg)
RCS (m²)

Purposes: comms

External: N2YO · Heavens-Above · Gunter

§ Orbital elements

Epoch: 2026-06-15T04:08:44.718720Z

Period
88.03 min
Inclination
53.0126°
Eccentricity
0.0005703
Mean motion
16.35787347 rev/d
Perigee alt
173.3 km
Apogee alt
180.8 km
Semi-major
6,555.2 km
B*
6.9977e-4
RAAN
185.2450°
Arg perigee
315.5239°
Mean anomaly
44.5347°
Rev number
32,059

§ Raw data

STARLINK-17641 46343U 20062U   26166.17273980  .05925273  12298-4  69977-3 0  99982 46343  53.0126 185.2450 0005703 315.5239  44.5347 16.35787347320594

JSON: /api/v1/satellites/46343 · /tle

For live sub-satellite position, see the globe view (requires WebGL).

§ Visibility from observer

Set your observer location to see the next 7 days of passes ≥ 10°. The values pass through the URL so the page stays shareable.

No JS? Fill the form by hand. The geolocation button needs JavaScript.